Location: ??
(35.1818°N, 139.6356°E)
Time: 20:11:18
(UTC+00:00)

Daily predictions for brighter satellites

Satellite Brightness Start Highest point End
(mag) Time Altitude Azimuth Time Altitude Azimuth Time Altitude Azimuth
Cosmos 2016 Rocket 4.5 18:46:05 50° S 18:46:05 50° S 18:50:33 10° S
SJ 16-02 3.0 18:49:00 29° ESE 18:49:00 29° ESE 18:51:25 10° SE
USA 229 DEB 3.5 18:56:48 61° N 18:56:48 61° N 19:02:08 10° NNE
USA 229 3.5 18:56:59 62° N 18:56:59 62° N 19:02:22 10° NNE
Cosmos 1110 Rocket 4.4 19:00:58 10° S 19:06:08 61° ESE 19:11:22 10° NNE
Aureole 3 3.9 19:04:17 10° S 19:10:13 85° W 19:15:10 10° N
SL-16 R/B 2.9 19:12:11 38° N 19:12:11 38° N 19:15:54 10° NNE
USA 267 3.1 19:04:31 10° NE 19:11:01 70° NW 19:12:26 55° W
Cosmos 304 Rocket 3.7 19:12:25 76° NE 19:12:39 79° ENE 19:17:24 10° SSE
ATLAS 3B R/B 2.9 19:12:31 51° WSW 19:14:09 61° NW 19:21:54 10° NNE
Cosmos 371 Rocket 3.3 19:13:59 67° N 19:14:34 79° ENE 19:19:23 10° SSE
CZ-3 R/B 3.1 19:04:58 29° WSW 19:14:47 59° S 19:21:32 10° ESE
CENTAUR R/B 4.1 19:08:54 12° NNW 19:16:38 49° NE 19:25:41 10° SE
OAO 1 4.3 19:20:43 67° W 19:21:29 90° SW 19:26:58 10° E
Cosmos 1818 3.8 19:34:51 10° SSW 19:40:13 71° ESE 19:45:38 10° NNE
Cosmos 1452 Rocket 3.4 19:38:46 10° SSW 19:43:59 81° WNW 19:49:14 10° NNE
Cosmos 2233 Rocket 4.3 19:41:30 23° NW 19:44:44 40° W 19:50:26 10° SSW
Cosmos 1378 Rocket 3.5 19:45:02 10° SSW 19:49:12 56° W 19:53:25 10° N
Cosmos 1331 Rocket 4.0 19:44:40 10° SSW 19:49:47 54° WNW 19:54:55 10° N
Lacrosse 5 rocket 3.5 19:48:48 10° N 19:50:36 14° NE 19:52:22 10° ENE
CZ-4 R/B 3.7 19:46:48 10° N 19:51:35 82° WNW 19:56:15 10° SSW
Cosmos 2061 Rocket 4.4 19:47:22 12° NNW 19:52:39 38° W 19:58:18 10° SSW
Cosmos 1850 Rocket 4.5 19:48:58 10° N 19:54:05 60° ENE 19:59:10 10° SSE
SL-16 R/B 4.5 19:51:00 10° SW 19:51:09 10° SW 19:51:09 10° SW
Cosmos 2221 Rocket 3.9 19:51:02 10° S 19:55:31 70° E 20:00:02 10° NNE
Hubble Space Telescope 2.8 19:54:16 11° SSW 19:56:54 20° SSE 19:59:42 10° ESE
Cosmos 1943 3.1 19:51:24 10° SSW 19:56:57 65° WNW 20:02:32 10° NNE
Helios 1A Rocket 3.2 19:55:06 10° SSE 19:58:22 51° ENE 20:01:38 10° N
Atlas Centaur 2 4.3 19:52:19 10° SW 19:58:54 30° SSE 20:04:41 10° E
NOAA 12 4.0 19:53:56 10° N 19:59:15 77° WNW 20:04:32 10° SSW
Cosmos 1812 3.6 20:01:54 21° SW 20:01:54 21° SW 20:03:11 10° SSW
Lacrosse 4 Rocket 4.0 19:58:58 10° NNE 20:01:11 14° NE 20:03:23 10° E
Cosmos 2369 Rocket 2.1 19:55:56 10° NNW 20:01:38 82° WSW 20:07:20 10° SSE
Cosmos 1464 Rocket 4.2 19:55:59 10° N 20:02:08 75° E 20:08:13 10° SSE
Cosmos 2297 3.6 19:57:38 10° NNW 20:03:17 82° WSW 20:08:53 10° SSE
Cosmos 2151 Rocket 3.5 19:58:59 10° N 20:03:28 88° E 20:07:52 10° S
Cosmos 1603 4.1 19:58:50 10° S 20:04:30 67° ESE 20:10:12 10° NNE
Cosmos 1484 Rocket 3.8 20:01:14 10° NNE 20:04:36 43° E 20:07:55 10° S
Meteor 1-11 4.2 19:59:58 10° SSW 20:05:48 72° W 20:11:39 10° N
Okean 1 Rocket 3.5 20:05:28 10° N 20:09:44 62° E 20:13:58 10° SSE
COSMO-SKYMED 1 2.5 20:10:45 10° SSE 20:14:51 80° ENE 20:18:59 10° N
Sich 1 Rocket 3.8 20:11:32 10° N 20:16:03 76° E 20:20:28 10° S
Chandra Rocket (1) 4.4 20:14:09 13° WSW 20:18:45 39° S 20:34:31 10° ESE
Cosmos 1441 Rocket 2.9 20:19:23 10° S 20:22:42 82° E 20:26:02 10° N
SJ 16-02 3.2 20:25:37 12° WSW 20:25:37 12° WSW 20:26:47 10° WSW
IGS 5A 4.0 20:22:15 10° NNE 20:26:11 59° E 20:30:04 10° S
Cosmos 968 Rocket 3.8 20:23:54 10° NNW 20:28:53 46° WSW 20:33:51 10° S
SL-8 R/B 3.7 20:24:21 10° WSW 20:29:05 68° NW 20:33:49 10° NE
Cosmos 292 Rocket 4.4 20:27:44 10° N 20:32:27 58° ENE 20:37:06 10° SSE
BREEZE-M DEB (TANK) 4.0 20:27:20 10° SW 20:34:04 67° SE 20:36:51 10° ENE
Cosmos 1975 Rocket 3.9 20:31:46 10° S 20:35:55 52° E 20:40:06 10° NNE
BREEZE-M DEB (TANK) 3.0 20:34:45 13° W 20:36:29 29° NNW 20:38:52 10° NE
IRS-1D 4.5 20:37:08 10° NNW 20:40:56 23° WNW 20:44:45 10° WSW
Cosmos 1025 Rocket 4.0 20:40:29 10° SW 20:44:09 26° WNW 20:47:51 10° NNW
Cosmos 1400 Rocket 3.9 20:41:46 10° NW 20:44:29 20° W 20:47:10 10° SW
OAO 1 Rocket 4.5 20:41:55 10° W 20:47:14 87° S 20:52:31 10° E
CZ-3C R/B 4.1 20:45:06 10° SSW 20:49:15 22° SE 21:01:55 10° E
USA 267 4.4 20:48:23 10° NNE 20:53:14 23° NNW 20:58:04 10° WNW
Cosmos 1992 Rocket 4.0 20:50:09 10° SSW 20:55:17 61° WNW 21:00:27 10° N
Cosmos 2084 3.3 20:51:50 10° NNW 20:55:52 86° ENE 20:59:49 10° SSE
NOSS 3-2 (A) 4.4 20:49:43 10° NNW 20:57:38 86° ENE 21:06:52 10° SSE
